Warning: Javascript must be enabled to use all the features on this page!


Page Loading - Please Wait...

* We've detected you're using a mobile device. Find our Next Generation Station Page here.
Click to hideNews Bulletins
  • Explore the NEW USGS National Water Dashboard interactive map to access real-time water data from over 13,500 stations nationwide.
  • Full News RSS icon
  • USGS has scheduled planned maintenance to our IT infrastructure, starting Tuesday, June 28, 2022, from 8:00-10:00am Eastern Daylight Time (EDT). During the maintenance period, there will be a short interruption in the availability of the most recent time-series data. Any backlog will be made available following conclusion of the scheduled maintenance.

Peak Streamflow for the Nation

USGS 14092750 SHITIKE CRK AT PETERS PASTURE, NR WARM SPRINGS, OR

Jefferson County, Oregon
Hydrologic Unit Code 17070306
Latitude  44°45'02", Longitude 121°37'56" NAD27
Drainage area 22.9  square miles
Gage datum 3,580 feet above NGVD29
Output formats
Table
Graph
Tab-separated file
peakfq (watstore) format
Reselect output format
Water
Year
Date Gage
Height
(feet)
Stream-
flow
(cfs)
1983 1983-01-06 2.67 500
1984 1984-02-13 2.352 376
1985 1985-06-07 2.94 605
1986 1986-02-23 3.65 892
1987 1986-11-27 2.18 310
1988 1987-12-10 3.49 799
1989 1988-11-22 2.172 295
1990 1990-04-27 3.08 660
1991 1991-01-15   260
1992 1991-11-25 2.45 415
1993 1993-03-23 2.61 480
1994 1994-01-03   1851,8
1995 1995-02-01 3.92 1,110
1996 1996-02-07 6.562 2,430
1997 1997-01-01 4.14 1,100
1998 1997-10-30 3.80 976
1999 1998-12-28 2.842 582
2000 1999-11-26 5.78 1,940
2001 2001-05-16 2.07 297
2002 2002-04-14 3.49 845
2003 2003-01-30 3.53 862
2004 2003-12-13 2.04 288
2005 2005-03-27 2.50 413
2006 2006-01-11 4.07 1,090
2007 2006-12-14 3.95 1,040
2008 2007-12-04 3.10 666
2009 2008-11-13 3.00 622
2010 2010-06-03 3.07 652
2011 2011-01-16 4.49 1,290
2012 2011-12-30 4.66 1,370
2013 2012-12-05 4.09 1,100
2014 2014-03-09 3.66 913
2015 2014-12-21 4.83 1,450
2016 2015-12-07 4.05 1,080
2017 2017-03-18 2.94 597
2018 2017-10-22 4.36 1,250
2019 2019-04-08 4.02 1,090
2020 2020-04-26 2.04 236
?
  Peak Gage-Height Qualification Codes.
?
  Peak Streamflow Qualification Codes.